"2010-08-08 00:00:00",52141,8.16,225.2,3.398,0.529,23.21,110.1715,25.34,26.33,24.3,0,111.2,13.11,26.18,187.2
"2010-08-08 00:00:30",52142,9.47,228.9,5.659,0.858,15.77,110.1421,25.26,26.29,24.36,0,111.2,13.11,26.10,190.9
"2010-08-08 00:01:00",52143,10.57,238.3,5.118,0.718,16.89,110.1197,25.2,26.24,25.23,0,111.2,13.11,26.04,200.3
"2010-08-08 00:01:30",52144,10.08,240.8,3.601,0.383,8.15,110.0806,25.1,26.17,25.83,0,111.2,13.11,25.94,202.8
"2010-08-08 00:02:00",52145,9.88,241.7,2.756,0.406,18.77,110.0295,24.97,26.07,26.1,0,111.1,13.11,25.81,203.7
"2010-08-08 00:02:30",52146,9.32,234.4,3.04,0.513,22.33,109.9829,24.85,25.99,25.94,0,111.1,13.11,25.69,196.4
"2010-08-08 00:03:00",52147,9.57,231.9,4.309,0.35,6.309,109.9461,24.76,25.89,26.15,0,111.1,13.12,25.59,193.9
"2010-08-08 00:03:30",52148,8.89,234.6,4.716,1.029,-9.76,109.9026,24.64,25.8,26.76,0,111.1,13.12,25.48,196.6
"2010-08-08 00:04:00",52149,7.911,241,3.174,0.372,14.68,109.8557,24.52,25.71,27.04,0,111.1,13.12,25.36,203.0
"2010-08-08 00:04:30",52150,7.418,243,3.472,0.483,14.18,109.8158,24.42,25.61,26.58,0,111.1,13.12,25.26,205.0
"2010-08-08 00:05:00",52151,7.76,246.7,5.124,0.983,-0.329,109.7977,24.37,25.52,26.34,0,111.1,13.12,25.21,208.7
"2010-08-08 00:05:30",52152,8.77,244.7,3.452,0.39,21.2,109.7877,24.35,25.45,26.94,0,111.1,13.12,25.19,206.7
"2010-08-08 00:06:00",52153,8.34,245.8,3.36,0.289,-13.81,109.7747,24.32,25.4,27.35,0,111.1,13.13,25.15,207.8
"2010-08-08 00:06:30",52154,7.095,242.8,2.629,0.391,13.18,109.7475,24.25,25.33,27.03,0,111.1,13.13,25.08,204.8
"2010-08-08 00:07:00",52155,5.949,246.7,3.526,0.347,21.44,109.7325,24.21,25.26,27.25,0,111.1,13.13,25.04,208.7
"2010-08-08 00:07:30",52156,5.636,261.4,2.922,0.233,18.84,109.7099,24.15,25.22,27.69,0,111.1,13.13,24.99,223.4
"2010-08-08 00:08:00",52157,5.426,263.7,3.555,0.25,25.74,109.6769,24.06,25.16,27.8,0,111.1,13.13,24.90,225.7
"2010-08-08 00:08:30",52158,5.076,271.9,5.117,0.563,23.79,109.6498,23.99,25.11,27.75,0,111,13.13,24.83,233.9
"2010-08-08 00:09:00",52159,4.849,277.4,5.27,0.324,23.73,109.6399,23.97,25.05,27.81,0,111,13.14,24.80,239.4
"2010-08-08 00:09:30",52160,4.888,283.7,3.621,0.153,24.22,109.6394,23.97,25.01,27.43,0,111,13.14,24.80,245.7
"2010-08-08 00:10:00",52161,5.104,283.5,4.175,0.557,23.94,109.6394,23.97,24.98,27.77,0,111,13.14,24.80,245.5
"2010-08-08 00:10:30",52162,4.365,288.2,3.608,0.271,23.76,109.6411,23.97,24.97,27.46,0,111,13.14,24.81,250.2
"2010-08-08 00:11:00",52163,3.278,279,3.738,0.216,20.67,109.661,24.02,24.98,27.34,0,111,13.14,24.86,241.0
"2010-08-08 00:11:30",52164,3.38,288.8,3.76,0.238,23.07,109.6882,24.09,24.99,27.3,0,111,13.14,24.93,250.8
"2010-08-08 00:12:00",52165,3.66,281,2.832,0.121,22.83,109.7018,24.13,25,27.29,0,111,13.14,24.96,243.0
"2010-08-08 00:12:30",52166,3.484,291,4.536,0.34,22.75,109.7042,24.13,25.01,27.52,0,111,13.14,24.97,253.0
"2010-08-08 00:13:00",52167,3.906,298.6,4.781,0.301,22.97,109.7135,24.16,25,26.99,0,111,13.14,24.99,260.6
"2010-08-08 00:13:30",52168,3.792,305.9,6.523,0.308,22.93,109.7472,24.24,25.04,26.61,0,111,13.14,25.08,267.9
"2010-08-08 00:14:00",52169,4.114,313.1,4.599,0.359,23.04,109.785,24.34,25.08,26.33,0,111,13.14,25.18,275.1
"2010-08-08 00:14:30",52170,3.792,309.1,5.774,0.354,22.7,109.816,24.42,25.16,26.39,0,111,13.14,25.26,271.1
"2010-08-08 00:15:00",52171,4.773,302.4,5.786,0.83,23.13,109.8438,24.49,25.21,25.91,0,111,13.14,25.33,264.4
"2010-08-08 00:15:30",52172,5.674,296.7,4.041,0.587,23.1,109.8944,24.62,25.3,25.51,0,111,13.14,25.46,258.7
"2010-08-08 00:16:00",52173,3.936,304.2,4.654,0.505,23.02,109.9346,24.73,25.39,25.3,0,111,13.14,25.56,266.2
"2010-08-08 00:16:30",52174,3.1,311.5,5.39,0.326,23.09,109.9844,24.85,25.49,25,0,111,13.14,25.69,273.5
"2010-08-08 00:17:00",52175,3.348,308.6,6.721,0.272,22.95,110.0328,24.98,25.6,24.97,0,111,13.14,25.82,270.6
"2010-08-08 00:17:30",52176,4.194,294,5.629,0.675,22.93,110.0556,25.04,25.67,24.86,0,111,13.14,25.88,256.0
"2010-08-08 00:18:00",52177,3.95,298.8,6.621,0.371,22.83,110.0816,25.1,25.74,24.84,0,111,13.14,25.94,260.8
"2010-08-08 00:18:30",52178,3.571,294,3.516,0.149,22.82,110.0876,25.12,25.79,24.75,0,111,13.14,25.96,256.0
"2010-08-08 00:19:00",52179,2.996,296,4.891,0.249,22.78,110.1088,25.17,25.84,24.62,0,111,13.14,26.01,258.0
"2010-08-08 00:19:30",52180,3.182,301.3,2.393,0.172,22.72,110.1199,25.2,25.88,24.63,0,111,13.14,26.04,263.3
"2010-08-08 00:20:00",52181,3.819,298.5,5.626,0.24,22.93,110.1221,25.21,25.93,24.37,0,111,13.15,26.05,260.5
"2010-08-08 00:20:30",52182,3.899,293.7,3.154,0.256,22.8,110.1503,25.28,25.98,24.35,0,111,13.15,26.12,255.7
"2010-08-08 00:21:00",52183,3.651,283.8,5.709,0.393,22.73,110.1527,25.29,26.01,24.46,0,111,13.15,26.13,245.8
"2010-08-08 00:21:30",52184,4.177,284.7,3.351,0.234,22.9,110.1561,25.3,26.05,24.19,0,111,13.15,26.14,246.7
"2010-08-08 00:22:00",52185,3.651,283.2,3.837,0.201,22.86,110.1781,25.35,26.06,24.13,0,111,13.15,26.19,245.2
"2010-08-08 00:22:30",52186,3.534,273.4,4.5,0.31,22.82,110.1877,25.38,26.11,24.13,0,111,13.15,26.22,235.4
"2010-08-08 00:23:00",52187,4.543,269.1,4.048,0.673,23.03,110.1909,25.39,26.14,23.84,0,111,13.15,26.23,231.1
"2010-08-08 00:23:30",52188,4.726,274.2,1.606,0.588,22.97,110.2159,25.45,26.16,23.74,0,111,13.15,26.29,236.2
"2010-08-08 00:24:00",52189,3.876,278.5,2.323,0.146,22.97,110.2226,25.47,26.21,23.72,0,111,13.15,26.31,240.5
"2010-08-08 00:24:30",52190,3.748,277.3,2.403,0.126,22.92,110.2251,25.47,26.25,23.69,0,111,13.15,26.31,239.3
"2010-08-08 00:25:00",52191,3.818,273.2,4.445,0.176,22.91,110.238,25.51,26.3,23.64,0,111,13.15,26.35,235.2
"2010-08-08 00:25:30",52192,3.457,276.8,6.33,0.153,22.83,110.2426,25.52,26.29,23.68,0,111,13.15,26.36,238.8
"2010-08-08 00:26:00",52193,3.121,280,7.018,0.157,22.83,110.233,25.49,26.31,23.63,0,111,13.15,26.33,242.0
"2010-08-08 00:26:30",52194,3.324,277.8,2.25,0.144,22.74,110.2276,25.48,26.31,23.69,0,111,13.15,26.32,239.8
"2010-08-08 00:27:00",52195,3.236,280.2,2.299,0.175,22.72,110.2224,25.47,26.3,23.74,0,111,13.15,26.31,242.2
"2010-08-08 00:27:30",52196,3.041,281.6,2.987,0.299,22.76,110.2198,25.46,26.3,23.76,0,111,13.15,26.30,243.6
"2010-08-08 00:28:00",52197,2.85,278,4.893,0.157,22.73,110.2205,25.46,26.3,23.78,0,111,13.15,26.30,240.0
"2010-08-08 00:28:30",52198,3.157,281.4,1.72,0.105,22.75,110.215,25.45,26.3,23.76,0,111,13.15,26.29,243.4
"2010-08-08 00:29:00",52199,3.127,278.7,2.148,0.142,22.8,110.2012,25.41,26.29,23.73,0,111,13.15,26.25,240.7
"2010-08-08 00:29:30",52200,3.21,274,3.886,0.144,22.86,110.217,25.45,26.3,23.68,0,111,13.15,26.29,236.0
"2010-08-08 00:30:00",52201,3.242,274.8,2.662,0.199,22.83,110.2199,25.46,26.31,23.73,0,111,13.15,26.30,236.8
"2010-08-08 00:30:30",52202,3.757,274.3,2.726,0.142,22.86,110.2186,25.46,26.3,23.78,0,111,13.14,26.30,236.3
"2010-08-08 00:31:00",52203,4.783,271,2.564,0.495,23.11,110.2189,25.46,26.31,23.5,0,111,13.14,26.30,233.0
"2010-08-08 00:31:30",52204,4.667,271.9,2.994,0.163,23.08,110.2403,25.51,26.34,23.44,0,111,13.14,26.35,233.9
"2010-08-08 00:32:00",52205,4.819,271.4,1.924,0.171,23.05,110.2532,25.55,26.36,23.48,0,111,13.14,26.39,233.4
"2010-08-08 00:32:30",52206,5.21,267.7,3.243,0.257,23.07,110.2572,25.56,26.39,23.4,0,111,13.14,26.40,229.7
"2010-08-08 00:33:00",52207,5.156,258.8,3.396,0.254,23.13,110.2785,25.61,26.4,23.31,0,111,13.14,26.45,220.8
"2010-08-08 00:33:30",52208,5.107,263,1.526,0.221,23,110.2857,25.63,26.43,23.38,0,111,13.14,26.47,225.0
"2010-08-08 00:34:00",52209,4.595,261.7,3.77,0.324,23.08,110.2869,25.63,26.44,23.28,0,111,13.14,26.47,223.7
"2010-08-08 00:34:30",52210,4.622,256.5,2.321,0.211,22.94,110.286,25.63,26.45,23.38,0,111,13.14,26.47,218.5
"2010-08-08 00:35:00",52211,5.359,256.6,4.273,0.385,23.04,110.2857,25.63,26.45,23.35,0,111,13.14,26.47,218.6
"2010-08-08 00:35:30",52212,5.575,256.6,2.359,0.145,23.01,110.2851,25.63,26.47,23.46,0,111,13.14,26.47,218.6
"2010-08-08 00:36:00",52213,5.21,255.1,1.756,0.123,23.15,110.2869,25.63,26.48,23.33,0,111,13.14,26.47,217.1
"2010-08-08 00:36:30",52214,5.02,256.3,1.569,0.182,22.98,110.2874,25.63,26.48,23.38,0,111,13.14,26.47,218.3
"2010-08-08 00:37:00",52215,4.825,257.2,1.916,0.221,22.88,110.2848,25.63,26.48,23.5,0,111,13.14,26.47,219.2
"2010-08-08 00:37:30",52216,4.739,257.4,3.633,0.278,22.86,110.2725,25.59,26.47,23.56,0,111,13.14,26.44,219.4
"2010-08-08 00:38:00",52217,4.68,256.7,2.299,0.305,22.85,110.2535,25.55,26.47,23.61,0,111,13.14,26.39,218.7
"2010-08-08 00:38:30",52218,4.651,256.8,3.248,0.378,22.85,110.2466,25.53,26.43,23.66,0,111,13.15,26.37,218.8
"2010-08-08 00:39:00",52219,4.483,265.8,3.793,0.155,22.74,110.2242,25.47,26.42,23.84,0,111,13.14,26.31,227.8
"2010-08-08 00:39:30",52220,4.16,263.5,4.758,0.194,22.75,110.2186,25.46,26.4,23.86,0,111,13.14,26.30,225.5
"2010-08-08 00:40:00",52221,4.133,269.5,1.256,0.102,22.65,110.1926,25.39,26.36,24.03,0,111,13.15,26.23,231.5
"2010-08-08 00:40:30",52222,4.406,267.6,0.964,0.157,22.27,110.1643,25.32,26.3,24.66,0,111,13.15,26.16,229.6
"2010-08-08 00:41:00",52223,4.835,262.6,4.313,0.22,22.07,110.0962,25.14,26.19,25.38,0,111,13.15,25.98,224.6
"2010-08-08 00:41:30",52224,3.553,258.7,5.912,0.306,22.17,110.0303,24.97,26.09,26.02,0,111,13.15,25.81,220.7
"2010-08-08 00:42:00",52225,3.609,269.5,4.441,0.286,21.96,109.9798,24.84,25.98,26.12,0,111,13.15,25.68,231.5
"2010-08-08 00:42:30",52226,3.462,273,5.835,0.271,21.72,109.9168,24.68,25.86,27.73,0,111,13.15,25.52,235.0
"2010-08-08 00:43:00",52227,2.621,283.1,5.192,0.255,21.45,109.8399,24.48,25.7,29.9,0,111.1,13.14,25.32,245.1
"2010-08-08 00:43:30",52228,2.635,275.1,20.27,0.436,21.7,109.7598,24.28,25.55,29.74,0,111.1,13.15,25.11,237.1
"2010-08-08 00:44:00",52229,2.863,253.2,14.08,0.339,22.12,109.7398,24.23,25.44,28.64,0,111.1,13.15,25.06,215.2
"2010-08-08 00:44:30",52230,2.142,253,8.67,0.397,22.21,109.7438,24.24,25.4,28.31,0,111.1,13.14,25.07,215.0
"2010-08-08 00:45:00",52231,1.961,229.8,9.83,0.324,22.27,109.7483,24.25,25.36,27.86,0,111.1,13.15,25.08,191.8
"2010-08-08 00:45:30",52232,1.303,208.2,6.066,0.397,22.19,109.7761,24.32,25.36,27.84,0,111.1,13.15,25.16,170.2
"2010-08-08 00:46:00",52233,0.88,260.1,31.96,0.341,22,109.7769,24.32,25.33,28.38,0,111.1,13.14,25.16,222.1
"2010-08-08 00:46:30",52234,1.546,243,12.76,0.272,22.16,109.7705,24.3,25.29,27.29,0,111.1,13.15,25.14,205.0
"2010-08-08 00:47:00",52235,2.253,232.6,4.4,0.194,21.99,109.7775,24.32,25.29,27.83,0,111.1,13.15,25.16,194.6
"2010-08-08 00:47:30",52236,2.817,221.5,3.973,0.191,21.83,109.7528,24.26,25.26,29.18,0,111.1,13.15,25.10,183.5
"2010-08-08 00:48:00",52237,2.099,224.9,5.084,0.573,21.72,109.7255,24.19,25.19,30.02,0,111.1,13.14,25.03,186.9
"2010-08-08 00:48:30",52238,1.023,231.5,9.86,0.159,21.99,109.71,24.15,25.16,29.03,0,111.1,13.14,24.99,193.5
"2010-08-08 00:49:00",52239,0.958,192.4,13.67,0.293,21.77,109.6997,24.12,25.12,29.87,0,111.1,13.14,24.96,154.4
"2010-08-08 00:49:30",52240,1.644,186.3,19.38,0.387,22.06,109.6783,24.07,25.08,29.22,0,111.1,13.14,24.90,148.3
"2010-08-08 00:50:00",52241,1.838,167.4,12.59,0.224,22.1,109.6929,24.11,25.05,28.69,0,111.1,13.14,24.94,129.4
"2010-08-08 00:50:30",52242,1.255,180.1,20.41,0.182,22.07,109.7092,24.15,25.04,28.6,0,111.1,13.14,24.98,142.1
"2010-08-08 00:51:00",52243,2.653,200.6,12.17,0.347,22.37,109.7188,24.17,25.09,27.91,0,111.1,13.14,25.01,162.6
"2010-08-08 00:51:30",52244,3.039,195,4.147,0.171,22.41,109.7468,24.24,25.11,27.5,0,111.1,13.14,25.08,157.0
"2010-08-08 00:52:00",52245,3.506,198.7,2.023,0.185,22.55,109.7778,24.32,25.14,26.91,0,111.1,13.14,25.16,160.7
"2010-08-08 00:52:30",52246,3.463,195.4,4.574,0.143,22.58,109.814,24.42,25.21,26.63,0,111.1,13.14,25.25,157.4
"2010-08-08 00:53:00",52247,3.311,182.5,8.55,0.389,22.3,109.8446,24.5,25.25,27.1,0,111.1,13.14,25.33,144.5
"2010-08-08 00:53:30",52248,2.518,164.9,22.28,0.481,22.24,109.8449,24.5,25.3,27.32,0,111.1,13.14,25.33,126.9
"2010-08-08 00:54:00",52249,2.873,156.2,10.59,0.383,22.28,109.8449,24.5,25.3,27.24,0,111.1,13.15,25.33,118.2
"2010-08-08 00:54:30",52250,3.612,167.2,10.59,0.289,22.1,109.848,24.5,25.33,27.49,0,111.1,13.15,25.34,129.2
"2010-08-08 00:55:00",52251,4.563,190.7,8.23,0.281,22,109.8449,24.5,25.33,27.68,0,111.1,13.15,25.33,152.7
"2010-08-08 00:55:30",52252,3.903,167.3,12.46,0.473,21.98,109.8413,24.49,25.32,27.87,0,111.1,13.15,25.32,129.3
"2010-08-08 00:56:00",52253,4.355,164.8,3.614,0.418,21.95,109.8219,24.44,25.32,27.76,0,111.1,13.15,25.27,126.8
"2010-08-08 00:56:30",52254,4.621,179.5,3.903,0.36,21.95,109.8115,24.41,25.3,27.82,0,111.1,13.15,25.25,141.5
"2010-08-08 00:57:00",52255,4.179,171.4,3.839,0.352,22.1,109.8112,24.41,25.3,27.49,0,111.1,13.15,25.25,133.4
"2010-08-08 00:57:30",52256,4.026,172.7,7.305,0.71,22.14,109.8148,24.42,25.29,27.4,0,111.1,13.15,25.26,134.7
"2010-08-08 00:58:00",52257,3.7,168.9,5.53,0.331,22,109.8207,24.43,25.3,27.51,0,111.1,13.15,25.27,130.9
"2010-08-08 00:58:30",52258,4.196,168.4,11.75,0.418,22.14,109.8303,24.46,25.32,27.23,0,111.1,13.15,25.30,130.4
"2010-08-08 00:59:00",52259,3.631,178.9,7.182,0.504,22.27,109.8486,24.51,25.36,26.77,0,111.1,13.15,25.34,140.9
"2010-08-08 00:59:30",52260,2.84,181.6,8.13,0.228,22.16,109.8761,24.58,25.38,26.76,0,111.1,13.15,25.41,143.6
"2010-08-08 01:00:00",52261,3.614,198.2,3.159,0.441,22.02,109.8871,24.6,25.4,26.62,0,111.1,13.15,25.44,160.2
"2010-08-08 01:00:30",52262,3.794,186.8,8.67,0.352,21.94,109.909,24.66,25.44,26.66,0,111.1,13.15,25.50,148.8
"2010-08-08 01:01:00",52263,3.505,210.8,7.268,0.56,21.83,109.9123,24.67,25.46,26.62,0,111.1,13.15,25.51,172.8
"2010-08-08 01:01:30",52264,3.62,210.7,7.769,0.359,21.84,109.9123,24.67,25.48,26.57,0,111.1,13.15,25.51,172.7
"2010-08-08 01:02:00",52265,3.416,221.5,10.21,0.324,21.84,109.9129,24.67,25.49,26.46,0,111.1,13.15,25.51,183.5
"2010-08-08 01:02:30",52266,2.357,215.4,10.55,0.459,21.83,109.9191,24.69,25.51,26.51,0,111.1,13.15,25.52,177.4
"2010-08-08 01:03:00",52267,3.025,202.5,6.166,0.267,21.86,109.9312,24.72,25.53,26.33,0,111.1,13.15,25.56,164.5
"2010-08-08 01:03:30",52268,2.517,194.7,3.27,0.284,21.91,109.946,24.76,25.55,26.22,0,111.1,13.15,25.59,156.7
"2010-08-08 01:04:00",52269,1.913,186,4.981,0.225,21.84,109.9463,24.76,25.57,26.24,0,111.1,13.15,25.59,148.0
"2010-08-08 01:04:30",52270,2.333,168.6,9.31,0.585,21.71,109.946,24.76,25.57,26.7,0,111.1,13.14,25.59,130.6
"2010-08-08 01:05:00",52271,3.309,173.1,3.092,0.169,21.87,109.946,24.76,25.58,26.71,0,111.1,13.14,25.59,135.1
"2010-08-08 01:05:30",52272,3.651,166.9,6.915,0.157,21.89,109.9371,24.73,25.58,26.77,0,111.1,13.14,25.57,128.9
"2010-08-08 01:06:00",52273,3.658,166,3.017,0.347,21.99,109.9213,24.69,25.56,26.68,0,111.1,13.14,25.53,128.0
"2010-08-08 01:06:30",52274,4.112,158.4,2.829,0.147,22.04,109.9201,24.69,25.55,26.64,0,111.1,13.14,25.53,120.4
"2010-08-08 01:07:00",52275,4.345,158.6,3.313,0.212,22.2,109.9248,24.7,25.54,26.45,0,111.1,13.14,25.54,120.6
"2010-08-08 01:07:30",52276,4.506,155.8,2.402,0.093,22.19,109.9305,24.72,25.57,26.57,0,111.1,13.14,25.55,117.8
"2010-08-08 01:08:00",52277,4.589,157.3,1.164,0.105,22.17,109.9219,24.69,25.56,26.8,0,111.1,13.14,25.53,119.3
"2010-08-08 01:08:30",52278,4.444,152.9,3.004,0.128,22.19,109.9109,24.67,25.55,26.98,0,111.1,13.14,25.50,114.9
"2010-08-08 01:09:00",52279,3.98,146.8,1.139,0.169,22.1,109.9096,24.66,25.53,27.11,0,111.1,13.14,25.50,108.8
"2010-08-08 01:09:30",52280,3.655,144.2,2.967,0.077,22.12,109.8984,24.63,25.51,27.19,0,111.1,13.14,25.47,106.2
"2010-08-08 01:10:00",52281,3.897,137.3,2.772,0.313,22,109.8746,24.57,25.48,27.39,0,111.1,13.14,25.41,99.3
"2010-08-08 01:10:30",52282,4.599,137.8,4.54,0.278,21.41,109.8418,24.49,25.45,29.63,0,111.1,13.14,25.33,99.8
"2010-08-08 01:11:00",52283,5.299,136.4,4.056,0.254,21.53,109.785,24.34,25.37,29.47,0,111.1,13.14,25.18,98.4
"2010-08-08 01:11:30",52284,4.403,144.6,3.649,0.498,21.94,109.7375,24.22,25.29,28.67,0,111.1,13.14,25.06,106.6
"2010-08-08 01:12:00",52285,4.364,145.2,4.992,0.277,21.72,109.7127,24.16,25.2,29.47,0,111.1,13.14,24.99,107.2
"2010-08-08 01:12:30",52286,3.374,139.2,7.808,0.387,22.02,109.6882,24.09,25.13,28.94,0,111.1,13.15,24.93,101.2
"2010-08-08 01:13:00",52287,2.59,157.8,4.555,0.146,22.35,109.6932,24.11,25.1,28.05,0,111.1,13.15,24.94,119.8
"2010-08-08 01:13:30",52288,2.723,150.8,3.261,0.225,21.99,109.7066,24.14,25.1,28.44,0,111.1,13.15,24.98,112.8
"2010-08-08 01:14:00",52289,2.83,155.3,3.674,0.087,22.28,109.7108,24.15,25.1,27.93,0,111.1,13.15,24.99,117.3
"2010-08-08 01:14:30",52290,2.656,164.4,0.813,0.1,22.35,109.7404,24.23,25.08,27.71,0,111.1,13.14,25.06,126.4
"2010-08-08 01:15:00",52291,2.597,163.3,2.241,0.124,22.38,109.7678,24.3,25.13,27.63,0,111.1,13.15,25.13,125.3
"2010-08-08 01:15:30",52292,1.722,229.4,21.53,0.496,22.51,109.797,24.37,25.18,27.07,0,111.1,13.15,25.21,191.4
"2010-08-08 01:16:00",52293,1.267,244.8,10.3,0.323,22.48,109.8354,24.47,25.22,26.77,0,111.1,13.15,25.31,206.8
"2010-08-08 01:16:30",52294,1.189,237.7,16.12,0.427,22.46,109.8631,24.54,25.27,26.6,0,111.1,13.15,25.38,199.7
"2010-08-08 01:17:00",52295,1.313,241.5,6.973,0.182,22.47,109.8897,24.61,25.32,26.48,0,111.1,13.15,25.45,203.5
"2010-08-08 01:17:30",52296,0.756,221.4,7.174,0.132,22.46,109.912,24.67,25.37,26.44,0,111.1,13.15,25.51,183.4
"2010-08-08 01:18:00",52297,0.513,178.8,14.61,0.117,22.49,109.9258,24.7,25.42,26.25,0,111.1,13.15,25.54,140.8
"2010-08-08 01:18:30",52298,0.451,166.7,30.38,0.262,22.43,109.9452,24.75,25.46,26.23,0,111.1,13.15,25.59,128.7
"2010-08-08 01:19:00",52299,1.884,147.7,1.723,0.379,22.17,109.9454,24.75,25.48,26.95,0,111.1,13.15,25.59,109.7
"2010-08-08 01:19:30",52300,2.558,149.7,1.809,0.09,22.2,109.9317,24.72,25.49,27.12,0,111.1,13.15,25.56,111.7
"2010-08-08 01:20:00",52301,2.83,142,2.069,0.288,22,109.9123,24.67,25.48,27.25,0,111.1,13.15,25.51,104.0
"2010-08-08 01:20:30",52302,3.445,145.6,1.512,0.054,21.81,109.8834,24.59,25.45,27.87,0,111.1,13.15,25.43,107.6
"2010-08-08 01:21:00",52303,3.989,148.4,1.623,0.274,21.53,109.8361,24.47,25.39,29.06,0,111.1,13.15,25.31,110.4
"2010-08-08 01:21:30",52304,4.564,143.1,1.914,0.469,21.2,109.7721,24.31,25.31,31.58,0,111.1,13.15,25.15,105.1
"2010-08-08 01:22:00",52305,5.234,149.3,1.5,0.171,21.35,109.6948,24.11,25.19,31.06,0,111.1,13.14,24.95,111.3
"2010-08-08 01:22:30",52306,5.111,148.2,1.586,0.201,21.39,109.6335,23.95,25.05,31.34,0,111.1,13.14,24.79,110.2
"2010-08-08 01:23:00",52307,5.068,149.8,3.795,0.165,21.65,109.5829,23.82,24.95,30.74,0,111.1,13.14,24.66,111.8
"2010-08-08 01:23:30",52308,4.642,149.6,4.185,0.374,21.72,109.5481,23.73,24.83,30.63,0,111.1,13.14,24.57,111.6
"2010-08-08 01:24:00",52309,4.491,151.8,2.448,0.114,21.97,109.539,23.71,24.76,30.22,0,111.1,13.14,24.54,113.8
"2010-08-08 01:24:30",52310,4.955,148.8,2.095,0.306,21.94,109.5405,23.71,24.73,30.17,0,111.1,13.14,24.55,110.8
"2010-08-08 01:25:00",52311,5.038,149.4,1.472,0.103,22.02,109.5405,23.71,24.71,30.12,0,111.1,13.14,24.55,111.4
"2010-08-08 01:25:30",52312,4.899,150.5,2.601,0.346,22.17,109.5423,23.72,24.69,29.98,0,111.1,13.14,24.55,112.5
"2010-08-08 01:26:00",52313,4.997,147.4,2.058,0.149,22.12,109.5668,23.78,24.69,30.06,0,111.1,13.14,24.62,109.4
"2010-08-08 01:26:30",52314,4.879,147.6,3.113,0.11,22.08,109.5743,23.8,24.69,30.36,0,111.1,13.14,24.64,109.6
"2010-08-08 01:27:00",52315,4.673,145.8,2.983,0.182,22.29,109.5791,23.81,24.7,29.69,0,111.1,13.14,24.65,107.8
"2010-08-08 01:27:30",52316,4.452,145,2.623,0.192,22.35,109.6038,23.88,24.73,29.42,0,111.1,13.15,24.71,107.0
"2010-08-08 01:28:00",52317,4.604,146.9,3.392,0.078,22.32,109.6286,23.94,24.77,29.25,0,111.1,13.15,24.78,108.9
"2010-08-08 01:28:30",52318,4.646,147.4,1.651,0.1,22.27,109.644,23.98,24.79,29.33,0,111.1,13.15,24.82,109.4
"2010-08-08 01:29:00",52319,4.747,147.8,0.948,0.06,22.3,109.6617,24.03,24.83,29.24,0,111.1,13.15,24.86,109.8
"2010-08-08 01:29:30",52320,4.856,149.8,0.656,0.064,22.23,109.6763,24.06,24.86,29.41,0,111.1,13.15,24.90,111.8
"2010-08-08 01:30:00",52321,5.606,154.2,1.868,0.429,21.85,109.6763,24.06,24.89,30.31,0,111.1,13.15,24.90,116.2
"2010-08-08 01:30:30",52322,6.673,153.9,1.683,0.28,21.27,109.6555,24.01,24.89,32.35,0,111.1,13.15,24.85,115.9
"2010-08-08 01:31:00",52323,6.096,154.8,2.549,0.275,21.08,109.5937,23.85,24.8,34.36,0,111.1,13.15,24.69,116.8
"2010-08-08 01:31:30",52324,6.089,156.1,1.582,0.155,21.01,109.5122,23.64,24.7,35.6,0,111.1,13.15,24.48,118.1
"2010-08-08 01:32:00",52325,5.814,156.4,1.183,0.162,21.19,109.4485,23.48,24.59,35.08,0,111.1,13.15,24.31,118.4
"2010-08-08 01:32:30",52326,5.345,154.6,2.929,0.221,21.74,109.4069,23.37,24.5,32.98,0,111.1,13.15,24.20,116.6
"2010-08-08 01:33:00",52327,4.87,150.4,3.03,0.197,21.97,109.4066,23.37,24.41,32.08,0,111.1,13.15,24.20,112.4
"2010-08-08 01:33:30",52328,4.333,144.8,2.016,0.276,22.28,109.4254,23.42,24.42,31.1,0,111.1,13.15,24.25,106.8
"2010-08-08 01:34:00",52329,3.824,137.6,2.136,0.111,22.44,109.4712,23.54,24.46,30.32,0,111.1,13.15,24.37,99.6
"2010-08-08 01:34:30",52330,3.612,141,1.341,0.033,22.31,109.5257,23.68,24.51,30.24,0,111.1,13.15,24.51,103.0
"2010-08-08 01:35:00",52331,3.537,141.8,0.918,0.107,22.21,109.5713,23.79,24.59,30.16,0,111.1,13.15,24.63,103.8
"2010-08-08 01:35:30",52332,3.465,142.6,1.222,0.031,22.17,109.6072,23.89,24.65,30.05,0,111.1,13.15,24.72,104.6
"2010-08-08 01:36:00",52333,3.364,143.1,2.028,0.042,22.07,109.6378,23.96,24.71,30.08,0,111.1,13.15,24.80,105.1
"2010-08-08 01:36:30",52334,3.304,142.6,1.523,0.123,22.1,109.6483,23.99,24.77,29.98,0,111.1,13.15,24.83,104.6
"2010-08-08 01:37:00",52335,3.328,143,3.072,0.205,22.12,109.673,24.05,24.83,29.83,0,111.1,13.15,24.89,105.0
"2010-08-08 01:37:30",52336,3.182,139.3,1.483,0.085,22.12,109.6797,24.07,24.86,29.77,0,111.1,13.15,24.91,101.3
"2010-08-08 01:38:00",52337,3.551,141.4,1.275,0.167,22,109.6952,24.11,24.89,29.77,0,111,13.15,24.95,103.4
"2010-08-08 01:38:30",52338,3.65,142.7,1.268,0.131,22.01,109.7099,24.15,24.92,29.77,0,111.1,13.15,24.99,104.7
"2010-08-08 01:39:00",52339,4.045,143.9,0.434,0.116,21.96,109.7119,24.15,24.96,29.79,0,111,13.15,24.99,105.9
"2010-08-08 01:39:30",52340,4.051,144.6,0.581,0.064,22,109.7107,24.15,24.97,29.75,0,111,13.15,24.99,106.6
"2010-08-08 01:40:00",52341,4.218,144.4,0.335,0.041,22.11,109.7119,24.15,24.99,29.7,0,111,13.15,24.99,106.4
"2010-08-08 01:40:30",52342,4.135,143.3,1.438,0.121,22.06,109.7127,24.16,25,29.67,0,111,13.15,24.99,105.3
"2010-08-08 01:41:00",52343,4.412,142.7,1.532,0.149,21.97,109.7152,24.16,25.01,29.73,0,111,13.15,25.00,104.7
"2010-08-08 01:41:30",52344,4.743,142.3,1.126,0.135,21.85,109.7128,24.16,25.01,29.8,0,111,13.15,24.99,104.3
"2010-08-08 01:42:00",52345,4.79,144.4,1.055,0.085,21.9,109.6996,24.12,25.01,29.91,0,111,13.15,24.96,106.4
"2010-08-08 01:42:30",52346,4.746,145.7,0.901,0.088,21.9,109.6828,24.08,24.99,29.9,0,111,13.15,24.92,107.7
"2010-08-08 01:43:00",52347,4.38,146.7,0.797,0.084,22.11,109.6782,24.07,24.97,29.9,0,111,13.15,24.90,108.7
"2010-08-08 01:43:30",52348,4.133,146,0.676,0.178,22.16,109.6797,24.07,24.97,29.87,0,111,13.15,24.91,108.0
"2010-08-08 01:44:00",52349,3.963,144.7,0.742,0.093,22.24,109.6845,24.08,24.97,29.78,0,111,13.15,24.92,106.7
"2010-08-08 01:44:30",52350,3.59,143.8,2.459,0.166,22.33,109.7029,24.13,24.99,29.61,0,111,13.15,24.97,105.8
"2010-08-08 01:45:00",52351,3.403,145.6,1.956,0.247,22.38,109.7142,24.16,25.03,29.41,0,111,13.15,25.00,107.6
"2010-08-08 01:45:30",52352,3.496,141.2,2.943,0.197,22.51,109.7362,24.22,25.04,29.21,0,111,13.15,25.05,103.2
"2010-08-08 01:46:00",52353,3.447,144.1,3.676,0.137,22.52,109.7486,24.25,25.08,29.05,0,111,13.16,25.09,106.1
"2010-08-08 01:46:30",52354,3.296,140.8,3.888,0.279,22.61,109.7733,24.31,25.11,28.53,0,111,13.15,25.15,102.8
"2010-08-08 01:47:00",52355,3.059,137.5,4.165,0.114,22.63,109.7894,24.35,25.15,28.3,0,111,13.15,25.19,99.5
"2010-08-08 01:47:30",52356,3.424,144.2,1.952,0.12,22.46,109.8162,24.42,25.18,28.91,0,111,13.16,25.26,106.2
"2010-08-08 01:48:00",52357,3.415,143.6,1.047,0.078,22.49,109.8158,24.42,25.22,28.96,0,111,13.16,25.26,105.6
"2010-08-08 01:48:30",52358,3.283,138.4,1.653,0.085,22.46,109.8171,24.42,25.24,28.86,0,111,13.16,25.26,100.4
"2010-08-08 01:49:00",52359,2.937,138.3,3.656,0.094,22.49,109.8161,24.42,25.25,28.79,0,111,13.16,25.26,100.3
"2010-08-08 01:49:30",52360,3.142,142.1,1.659,0.124,22.42,109.8177,24.43,25.27,29.01,0,111,13.15,25.26,104.1